User: anonymous   Login
Location: Gunung Kajang
(2.4167°N, 113.7167°E)
Time: 14:51:58
(UTC+00:00)
Language:

Cosmos 1302 Rocket - Orbit

View from above orbital plane
View from above orbital plane
View from above satellite
View from above satellite

Ground track
Ground track

The orbit data is extracted from the following two-line orbital elements,

1 12792U 81084B   22221.87167711  .00000132  00000-0  52558-4 0  9994
2 12792  74.0301 174.5761 0013583 358.5474   1.5638 14.37723977145165
Epoch (UTC): 09 August 2022 20:55:12
Eccentricity: 0.0013583
inclination: 74.0301°
perigee height: 756 km
apogee height: 776 km
right ascension of ascending node: 174.5761°
argument of perigee: 358.5474°
revolutions per day: 14.37723977
mean anomaly at epoch: 1.5638°
orbit number at epoch: 14516

The dashed part of the orbit path shows where the satellite is in the earth's shadow,  

DLR